GFSFLT2_con_sbcape_144.txt.gz
CAPE
0 0 0 0 0 0 0 0 0 0 0 0 0 3 4 5 2 3 4 6 7 7 6 7 9 11 7
0 0 0 0 0 0 0 0 0 0 0 0 1 1 1 2 5 3 7 7 8 4 3 4 6 9 11
0 0 0 0 0 0 0 0 0 0 0 0 0 0 3 6 6 7 4 3 4 4 3 4 5 10 5
0 0 0 0 0 0 0 0 0 0 0 0 0 0 0 0 0 1 0 0 0 2 6 5 5 10 6
0 0 0 0 0 0 0 0 0 0 0 0 0 0 0 0 0 0 0 0 2 5 5 7 10 9 7
0 0 0 0 0 0 0 0 0 0 0 0 0 0 0 0 0 0 0 1 5 4 6 6 8 7 11
0 0 0 0 0 0 0 0 0 0 0 0 0 0 0 0 0 0 0 0 2 4 6 5 5 4 4
0 0 0 0 0 0 0 0 0 0 0 1 0 0 0 0 0 0 0 2 2 5 5 2 1 2 3
1 0 0 0 0 0 0 1 0 1 0 0 0 0 0 0 0 0 0 0 1 1 2 2 2 4 1
0 0 0 0 7 3 0 0 0 1 0 0 0 0 0 0 0 0 0 0 0 0 0 1 2 0 0
0 0 0 0 0 0 0 0 0 3 0 0 0 0 0 0 0 0 0 0 0 0 0 0 0 1 0
0 0 0 0 0 0 0 0 0 0 0 0 0 0 0 0 0 0 0 0 0 0 0 0 0 2 4
0 0 0 0 0 0 0 0 0 0 0 0 0 0 0 0 0 1 2 0 0 0 0 0 0 0 0
0 0 0 0 0 0 0 0 0 0 0 0 0 0 0 1 2 1 1 1 0 0 0 0 0 0 0
0 0 0 0 0 0 0 0 0 0 0 0 0 0 0 0 0 2 1 1 0 0 0 1 1 0 0
0 0 0 0 0 0 0 0 0 0 0 0 0 0 0 0 6 1 0 1 0 0 0 0 2 0 0
0 0 0 0 0 0 0 0 0 0 0 0 0 0 0 0 0 0 0 0 0 0 0 0 0 0 0

GFSFLT2_con_sbcape_150.txt.gz
CAPE
0 0 0 0 0 0 0 0 0 0 0 0 0 0 0 1 4 4 5 9 9 11 15 18 21 17 24
0 0 0 0 0 0 0 0 0 0 0 0 0 0 0 1 3 3 4 9 7 11 8 12 8 14 13
0 0 0 0 0 0 0 0 0 0 0 0 0 0 0 1 1 2 6 10 8 10 7 9 14 13 13
0 0 0 0 0 0 0 0 0 0 0 0 0 0 0 0 0 3 1 0 1 5 4 4 8 11 9
0 0 0 0 0 0 0 0 0 0 0 0 0 0 0 0 0 3 0 0 0 3 3 4 9 13 7
0 0 0 0 0 0 0 0 0 0 0 0 0 0 0 0 0 0 0 1 2 7 7 9 15 6 11
0 0 0 0 0 0 0 1 0 0 0 0 0 0 0 0 0 0 2 4 5 8 7 14 5 12 8
0 0 0 0 0 0 0 3 8 8 4 5 0 0 2 2 1 1 1 2 4 5 8 15 11 14 17
0 0 0 0 0 0 2 9 9 9 4 10 1 5 6 4 0 0 0 0 2 4 7 11 15 12 14
0 2 9 0 10 3 2 7 18 10 1 16 9 4 5 1 0 0 0 0 0 1 8 11 3 5 5
0 0 5 14 8 7 4 9 15 18 0 9 16 15 11 5 1 0 0 0 0 0 0 1 2 4 7
1 0 1 3 6 3 7 6 15 14 16 5 11 26 16 12 7 2 3 2 1 1 1 1 2 3 5
1 3 6 9 0 5 6 6 21 35 17 0 4 7 18 21 12 9 11 4 3 9 7 5 4 2 2
0 0 0 0 0 11 10 2 4 5 0 2 1 5 18 16 22 19 14 11 3 5 8 7 4 3 6
0 0 0 0 0 2 5 6 7 12 12 5 5 9 9 13 20 16 13 15 17 15 12 12 10 7 7
0 0 0 1 3 2 4 8 17 16 13 11 7 7 7 8 11 13 14 11 13 15 9 12 6 5 6
0 1 1 1 5 9 9 12 14 10 11 11 9 8 13 12 3 2 13 8 16 7 11 14 17 8 3

GFSFLT2_con_sbcape_153.txt.gz
CAPE
0 0 0 0 0 0 0 0 0 0 0 0 0 0 0 0 0 2 4 6 9 13 14 13 15 7 11
0 0 0 0 0 0 0 0 0 0 0 0 0 0 0 0 0 1 3 5 6 10 13 8 12 14 17
0 0 0 0 0 0 0 0 0 0 0 0 0 0 0 0 0 1 2 3 7 11 6 8 10 11 14
0 0 0 0 0 0 0 0 0 0 0 0 0 0 0 0 0 0 0 2 7 9 9 7 5 5 8
0 0 0 0 0 0 0 0 0 0 0 0 0 0 0 0 0 0 1 2 5 4 3 6 6 6 9
0 0 0 0 0 0 0 0 0 0 0 0 0 0 0 0 0 0 0 5 8 6 7 6 7 7 9
0 0 0 0 0 0 0 0 0 0 0 0 0 0 0 0 0 0 0 2 5 9 11 12 11 13 10
1 0 0 0 0 0 0 0 0 0 0 0 0 0 0 0 0 1 1 4 7 10 12 10 10 18 10
14 13 13 9 6 0 0 0 0 2 1 0 0 0 0 0 0 2 2 4 5 6 11 13 11 8 5
11 5 2 0 25 2 0 0 1 0 0 0 0 0 0 0 0 0 0 0 0 0 4 7 14 0 0
15 17 15 0 0 0 0 0 0 0 0 0 0 0 0 0 0 0 0 0 0 0 0 1 12 7 0
9 18 4 0 0 5 1 2 0 0 0 0 0 0 0 0 0 0 0 0 0 0 0 0 3 6 10
8 16 1 0 0 0 0 1 2 0 0 0 0 0 0 0 0 0 0 0 0 0 0 0 1 0 0
14 8 6 0 0 0 0 0 0 0 0 1 0 0 0 0 0 0 0 0 0 0 0 0 0 0 0
10 7 3 1 0 0 0 0 0 0 0 0 0 0 0 0 0 0 0 0 0 0 0 0 2 3 0
4 4 4 0 0 0 0 0 0 0 1 0 0 0 0 0 3 0 0 0 0 0 0 2 3 2 0
11 3 2 0 2 0 0 0 0 1 2 0 0 0 0 0 0 1 0 0 0 0 1 1 1 0 0

GFSFLT2_con_sbcape_156.txt.gz
CAPE
0 0 0 0 0 0 0 0 0 0 0 0 0 0 0 0 0 0 0 3 5 3 3 3 3 13 12
0 0 0 0 0 0 0 0 0 0 0 0 0 0 0 0 0 0 0 1 3 4 3 4 4 10 11
0 0 0 0 0 0 0 0 0 0 0 0 0 0 0 0 0 0 1 2 5 3 4 5 5 13 10
0 0 0 0 0 0 0 0 0 0 0 0 0 0 0 0 0 3 7 4 6 5 7 8 6 8 6
0 0 0 0 0 0 0 0 0 0 0 0 0 0 0 0 0 0 1 3 3 6 10 10 5 5 5
0 0 0 0 3 0 0 0 0 0 0 0 0 0 0 0 0 0 0 0 3 7 13 12 8 8 8
12 2 1 0 4 7 0 0 0 0 0 0 0 0 0 0 0 0 0 0 4 11 7 6 11 11 12
1 2 5 6 4 4 4 2 0 0 0 0 0 0 0 0 0 0 0 0 3 9 4 6 10 6 6
11 26 29 29 46 42 33 14 0 0 0 0 0 0 0 0 0 0 0 2 10 6 7 8 8 7 9
2 2 7 2 29 12 15 38 3 0 0 0 0 0 0 0 0 0 0 3 3 6 10 8 6 3 0
3 4 3 5 4 11 8 1 5 0 0 0 0 0 0 0 0 0 0 0 0 0 0 5 9 10 1
0 0 0 6 7 3 3 0 5 0 0 1 0 0 0 0 0 0 0 0 0 0 0 0 2 5 17
0 0 0 0 3 7 5 2 0 0 1 0 0 0 0 0 0 0 0 0 0 0 0 0 0 0 0
3 3 5 3 2 5 7 7 0 0 0 0 0 0 0 0 0 0 0 0 0 0 0 0 0 0 0
0 0 1 8 8 2 3 0 0 0 0 0 0 0 0 0 0 0 0 0 0 0 0 0 0 0 0
0 0 0 7 4 4 0 0 0 0 0 0 0 0 0 0 6 0 0 0 0 0 0 0 0 0 0
4 0 0 5 11 8 9 0 0 0 0 0 0 0 0 0 0 6 0 0 0 0 0 0 0 0 0

GFSFLT2_con_sbcape_159.txt.gz
CAPE
0 0 0 0 0 0 0 0 0 0 0 0 0 0 0 0 0 0 0 0 2 8 11 11 10 15 12
0 0 0 0 0 0 0 0 0 0 0 0 0 0 0 0 1 1 0 0 1 7 11 10 9 9 10
0 0 0 0 0 0 0 0 0 0 0 0 0 0 0 0 1 2 4 1 2 4 6 9 7 8 12
0 0 0 0 0 0 0 0 0 0 0 0 0 0 0 1 1 0 2 5 3 6 9 10 6 8 10
0 0 0 0 0 0 1 0 0 0 0 0 0 0 0 0 0 0 0 6 10 7 10 13 11 12 10
5 4 1 6 7 2 3 4 3 3 0 0 0 0 0 0 0 0 0 0 4 9 16 16 17 15 14
2 0 1 1 4 1 1 0 3 0 1 0 0 0 0 0 0 0 0 0 0 4 13 15 20 10 10
0 0 0 0 0 10 26 23 21 7 10 23 7 0 0 0 0 0 0 6 1 2 8 16 33 17 9
10 14 19 14 15 31 16 7 8 2 2 4 1 3 0 0 0 0 0 9 40 9 11 15 20 18 11
6 10 4 0 1 7 16 11 15 10 0 1 0 0 0 0 0 0 0 10 56 37 16 13 23 5 0
13 3 0 0 0 0 5 13 19 20 0 26 0 0 0 0 0 0 0 0 1 1 23 22 28 12 0
4 0 0 0 0 0 1 2 3 13 5 19 6 0 0 0 0 0 0 0 0 0 0 0 8 10 14
6 1 0 0 0 3 5 1 1 6 4 1 10 0 0 0 0 0 0 0 0 0 0 0 0 0 0
0 0 0 0 0 0 1 4 7 0 0 0 0 0 0 0 0 0 0 0 0 0 0 0 0 0 0
0 0 1 0 1 0 0 4 3 1 1 0 0 0 0 0 0 0 0 0 0 0 0 0 0 0 0
0 1 0 0 0 0 1 6 3 3 4 0 0 0 0 0 3 0 0 0 0 0 0 0 0 0 0
0 0 0 2 4 0 1 1 1 2 0 0 0 0 0 0 0 3 0 0 0 0 0 0 0 0 0

GFSFLT2_con_sbcape_162.txt.gz
CAPE
0 0 0 0 0 0 0 0 0 0 0 0 3 13 11 2 2 1 4 5 5 6 8 16 22 23 27
0 0 0 0 0 0 0 0 0 0 0 0 0 5 25 40 38 28 11 4 7 8 9 9 18 26 30
0 0 0 0 0 0 0 0 0 0 0 0 0 0 5 32 41 37 22 15 21 12 9 7 11 18 26
0 0 0 0 0 0 1 0 0 0 0 0 1 0 0 0 11 21 24 26 36 29 25 24 20 11 18
0 0 0 0 0 0 0 0 0 0 0 0 0 0 0 0 0 0 0 19 35 41 40 21 35 19 19
0 0 0 0 0 1 1 3 3 0 0 2 0 0 0 0 0 0 0 2 31 51 57 57 46 40 27
6 1 4 2 0 2 1 4 11 12 14 4 6 3 1 0 0 0 0 4 14 55 36 71 65 65 52
0 0 1 0 0 2 2 4 13 2 5 23 2 12 12 1 0 0 1 10 38 42 21 51 66 52 57
37 19 16 14 12 3 0 0 3 0 0 12 0 0 3 2 0 1 2 4 53 61 40 40 38 48 53
0 4 15 15 33 6 0 5 12 9 0 12 14 9 10 0 0 0 0 0 1 63 77 63 46 19 10
22 7 4 0 0 0 0 0 15 9 2 5 1 10 25 7 0 0 0 0 0 0 47 88 69 52 1
0 2 0 0 0 0 0 0 2 6 3 16 3 13 9 6 9 0 0 0 0 0 0 8 55 65 32
0 0 0 0 0 0 0 0 0 0 0 0 1 2 2 5 5 0 0 0 0 0 0 0 0 0 0
0 0 0 0 0 0 0 0 1 0 1 0 0 0 0 1 4 0 0 0 0 0 0 0 0 0 0
0 0 1 0 0 0 1 1 0 0 1 1 0 0 0 1 3 0 0 0 0 0 0 0 0 0 0
0 0 0 2 1 0 0 0 0 0 0 0 0 0 0 0 7 0 0 0 0 0 0 0 0 0 0
0 0 0 0 7 4 0 0 0 1 0 0 0 0 0 0 0 2 0 0 0 0 0 0 0 0 0

GFSFLT2_con_sbcape_168.txt.gz
CAPE
0 0 0 0 0 0 0 0 0 0 0 0 0 0 3 5 9 9 13 18 24 31 30 31 40 32 25
0 0 0 0 0 0 0 0 0 0 0 5 6 3 4 3 4 5 11 22 17 34 46 58 57 61 59
0 0 0 0 0 0 0 0 0 0 1 2 7 10 11 12 14 12 14 22 22 25 32 52 71 70 49
0 0 1 0 0 1 3 4 1 0 1 0 0 0 1 5 6 9 9 6 6 9 18 51 50 34 73
1 0 0 0 0 0 1 2 2 1 0 0 0 0 0 0 0 1 0 2 7 14 21 25 20 25 32
6 6 8 0 0 3 0 0 0 0 0 0 0 0 0 0 0 1 12 21 26 30 19 28 40 29 26
5 0 0 0 7 2 0 0 0 1 7 2 0 0 0 0 0 2 11 21 27 20 19 31 42 50 36
0 0 0 4 8 4 10 4 1 12 19 9 0 0 0 0 0 3 2 4 14 33 36 18 25 37 38
32 41 45 43 32 5 0 0 2 0 0 0 0 0 0 0 0 0 8 27 27 17 22 37 34 42 20
14 0 0 0 17 0 0 4 6 4 0 0 0 2 0 0 0 0 0 0 0 7 16 20 19 6 0
0 0 0 0 0 0 0 0 1 3 1 3 3 5 3 0 0 0 0 0 0 0 0 2 10 13 12
0 0 4 0 0 0 0 0 0 1 0 0 0 0 1 0 0 0 0 0 0 0 0 0 7 14 25
6 4 1 0 0 0 0 0 0 0 0 0 0 0 0 0 2 0 1 0 0 0 0 0 2 2 4
0 0 0 0 0 0 0 0 0 0 0 0 0 2 0 0 1 0 3 0 0 0 0 1 3 0 1
1 5 6 1 2 2 1 0 0 0 1 0 0 0 0 0 1 0 0 0 0 0 0 0 0 0 0
0 1 2 4 7 0 9 0 0 1 0 0 0 0 0 0 0 0 0 0 0 0 0 0 0 0 0
0 0 0 0 0 0 0 0 0 1 0 0 0 0 0 0 0 0 2 2 0 0 0 0 0 0 0

GFSFLT2_con_sbcape_171.txt.gz
CAPE
0 0 0 0 0 0 0 0 0 2 4 5 6 8 9 11 10 11 9 20 31 35 42 81 94 95 90
0 0 3 6 6 3 2 0 0 0 0 5 6 6 9 12 13 17 19 23 23 26 31 30 55 68 91
4 6 7 4 11 12 13 8 7 2 1 0 0 1 9 11 11 19 20 13 17 16 16 34 42 46 48
12 4 6 8 14 21 16 20 22 1 0 0 0 0 0 1 6 10 9 4 10 23 26 29 24 28 42
17 27 18 15 17 29 31 22 13 7 13 8 10 9 3 2 4 0 6 18 28 28 35 40 38 35 36
25 21 12 24 11 19 43 20 10 12 33 13 15 21 16 15 0 4 11 22 32 20 28 31 50 55 50
21 14 14 10 38 40 55 20 15 8 22 31 16 26 8 0 0 0 5 13 19 26 28 29 36 28 44
27 18 34 50 49 44 57 45 17 7 12 25 7 8 5 7 5 2 2 5 17 13 32 41 35 29 50
10 16 19 6 8 39 41 34 19 10 6 23 9 22 10 5 0 2 0 7 3 7 11 10 14 23 49
0 0 0 0 1 6 30 19 33 25 8 19 15 23 11 4 9 7 1 0 2 3 9 16 16 11 14
3 6 9 8 5 6 7 21 13 11 5 21 17 25 26 30 9 5 8 6 8 7 6 11 15 27 31
10 8 9 14 15 13 13 12 11 11 6 9 18 25 22 27 21 2 7 10 14 15 8 8 6 13 26
12 17 20 20 18 19 21 17 17 8 3 1 23 25 37 28 20 13 9 5 14 16 20 5 8 8 6
21 19 17 21 26 26 32 32 21 17 2 3 12 33 20 16 14 8 2 10 13 13 17 5 5 6 14
25 31 20 18 18 16 25 25 22 11 15 6 5 6 9 7 9 8 2 1 3 14 7 5 4 5 4
13 11 14 13 12 16 15 14 6 9 19 17 17 6 8 1 1 10 4 0 0 5 7 6 3 5 3
6 12 11 8 11 8 10 13 11 10 11 16 13 11 7 9 2 0 19 14 1 2 7 7 7 6 7

GFSFLT2_con_sbcape_174.txt.gz
CAPE
0 0 0 0 0 1 0 1 1 2 3 5 9 12 19 16 21 24 27 31 34 34 37 42 51 46 49
0 0 2 5 8 10 8 6 8 3 5 4 8 6 9 17 18 25 25 29 35 40 50 41 48 47 46
3 4 10 10 18 13 10 11 5 10 8 9 11 10 18 21 17 24 28 35 33 32 30 27 26 40 44
10 9 7 4 7 15 11 14 22 9 18 27 29 20 9 17 23 21 27 29 24 24 17 21 31 43 46
13 9 7 5 12 13 21 26 25 42 28 21 27 27 30 24 28 29 29 23 27 35 44 39 50 57 64
14 6 3 13 13 20 47 39 31 19 38 21 23 24 20 12 9 7 7 16 28 27 32 44 49 56 48
7 3 3 5 28 55 52 46 43 24 35 34 17 27 23 11 13 10 11 11 17 26 15 26 38 39 38
0 4 12 14 19 30 46 49 40 24 28 32 15 25 26 31 17 12 5 9 19 24 28 24 22 23 40
13 16 11 9 17 29 34 44 24 15 24 32 18 24 26 28 14 8 8 13 15 17 20 19 16 21 24
7 2 3 4 11 22 28 39 52 35 8 16 24 38 22 24 16 14 16 8 13 17 16 13 11 19 30
5 5 9 9 16 21 22 31 63 58 20 35 42 51 48 42 19 24 30 28 31 9 7 8 7 12 23
9 7 19 25 26 24 26 29 41 44 28 21 41 55 19 37 42 18 19 24 7 17 43 27 19 11 22
14 21 27 35 28 31 35 38 41 40 23 51 35 53 39 44 41 26 19 8 12 34 36 30 21 3 7
23 22 26 27 27 33 33 32 39 28 10 15 27 36 37 36 28 15 19 10 1 4 22 7 3 13 18
25 20 16 20 21 23 27 33 27 25 21 15 20 32 31 19 10 9 25 15 4 2 5 2 13 15 1
17 18 21 23 19 23 23 15 16 16 30 28 31 29 18 15 17 42 32 39 40 9 2 10 3 20 3
13 25 17 15 11 7 8 21 18 24 30 36 37 31 25 19 14 14 38 29 29 14 7 7 2 2 6

GFSFLT2_con_sbcape_180.txt.gz
CAPE
0 0 0 0 0 0 0 0 0 0 0 0 3 6 10 20 29 35 53 61 45 68 87 74 80 59 54
0 0 0 0 0 0 0 0 0 0 1 7 12 16 16 21 25 29 33 47 59 59 45 48 51 53 61
0 0 0 0 0 0 0 0 0 0 5 8 9 15 27 30 29 27 24 24 34 43 38 27 30 46 54
0 0 0 0 0 0 0 0 0 0 0 0 4 8 12 24 21 8 8 25 43 42 36 37 49 55 63
0 0 0 0 0 0 0 0 0 0 0 0 0 0 0 2 4 8 29 33 39 38 40 46 52 60 57
0 0 0 0 0 0 0 0 0 0 0 0 0 0 0 0 3 10 27 40 44 37 43 46 42 50 50
0 0 0 0 0 4 0 0 0 0 1 0 0 0 0 0 0 6 31 40 32 43 49 48 53 50 51
0 0 0 0 1 0 0 0 0 0 0 0 0 0 0 0 0 2 26 17 26 35 43 43 45 46 42
0 0 3 5 2 1 0 0 0 0 0 0 0 0 0 0 0 2 8 1 2 27 24 24 18 29 17
0 0 0 0 7 1 4 3 0 2 0 0 0 0 0 0 0 0 0 0 2 5 17 16 30 19 11
0 0 0 0 0 0 0 4 7 1 0 10 4 2 3 1 0 0 0 0 0 0 1 10 20 10 10
0 0 0 0 0 0 0 0 4 1 0 0 4 13 2 1 0 0 0 0 0 0 0 13 12 6 11
0 0 0 0 0 0 0 0 0 0 0 0 0 0 0 2 2 0 4 0 0 0 0 0 0 0 1
0 0 0 0 0 0 3 2 0 0 0 0 0 0 0 0 1 1 0 0 0 0 0 0 0 0 1
3 4 9 2 0 0 6 3 1 0 0 0 0 0 0 0 1 0 0 0 1 0 0 0 0 0 0
3 7 1 0 2 2 4 2 2 0 0 0 0 0 0 0 2 0 0 0 0 0 0 1 1 0 0
1 0 0 0 2 0 4 3 0 0 0 0 0 3 0 0 0 2 0 0 0 2 0 0 0 0 0

GFSFLT2_con_sbcape_183.txt.gz
CAPE
0 0 0 0 0 0 0 0 0 0 2 5 6 10 13 17 32 35 33 42 43 49 48 43 58 73 80
0 0 0 0 0 0 0 0 0 0 1 0 5 6 13 17 19 22 31 25 25 41 49 40 47 51 56
0 0 0 0 0 0 0 0 0 0 0 0 1 4 7 15 18 21 13 15 23 39 49 57 57 61 49
0 0 0 0 0 0 0 0 0 0 0 0 0 0 0 4 3 1 9 25 38 38 44 58 51 59 62
0 0 0 0 0 0 0 0 0 0 0 0 0 0 0 0 0 0 20 34 47 69 62 53 44 55 52
0 0 0 0 0 0 0 3 0 0 0 0 0 0 0 0 0 7 20 29 33 24 34 40 54 57 62
0 0 0 0 0 0 0 0 0 0 0 0 0 0 0 0 0 12 13 34 26 20 17 43 38 42 41
0 0 0 0 0 0 0 0 0 0 0 0 0 0 0 0 0 1 8 15 19 18 26 26 26 30 43
0 0 1 0 0 0 0 0 0 0 0 0 0 0 0 0 0 0 0 2 7 10 15 16 18 29 4
0 0 0 0 0 0 0 2 4 1 0 0 2 2 0 0 0 0 0 0 2 3 7 13 22 2 1
0 0 0 0 0 0 0 0 0 1 0 1 0 0 11 2 0 0 0 0 0 0 0 0 25 16 1
0 0 0 0 0 0 0 0 0 0 0 0 0 2 0 0 0 0 0 0 0 0 0 0 1 13 27
0 0 0 0 0 0 0 0 0 0 0 0 0 0 0 0 1 1 7 1 0 0 0 0 0 0 0
0 1 3 0 0 0 0 3 0 0 0 0 0 0 0 0 2 1 1 0 0 0 0 0 0 0 0
2 2 8 1 0 0 2 4 0 0 0 0 0 0 0 0 0 0 0 0 0 0 0 0 0 0 0
3 0 0 0 0 1 0 0 3 0 0 0 0 0 0 0 0 0 0 0 0 0 1 3 2 0 0
0 0 0 0 0 0 0 1 0 0 0 0 0 0 0 0 0 0 0 0 0 0 0 0 1 0 0